Weather History for Marathon, FL

Change the Weather History Date:

Saturday, March 2, 2013

  Actual Average Record
Temperature  
Mean Temperature 62 °F 72 °F  
Max Temperature 67 °F 78 °F 86 °F (1997)
Min Temperature 57 °F 67 °F 56 °F (2009)
Degree Days  
Heating Degree Days 3 0  
Month to date heating degree days 3 0  
Since 1 July heating degree days 16 75  
Cooling Degree Days 0 8  
Month to date cooling degree days 2 16  
Year to date cooling degree days 597 398  
Growing Degree Days 12 (Base 50)    
Moisture  
Dew Point 47 °F    
Average Humidity 58    
Maximum Humidity 67    
Minimum Humidity 48    
Precipitation  
Precipitation 0.01 in 0.06 in 0.07 in (2011)
Month to date precipitation 0.08 0.12  
Year to date precipitation 2.46 3.94  
Snow  
Snow 0.00 in - - ()
Month to date snowfall 0.0  
Since 1 July snowfall 0.0  
Snow Depth 0.00 in    
Sea Level Pressure  
Sea Level Pressure 30.01 in    
Wind  
Wind Speed 9 mph (North)    
Max Wind Speed 17 mph    
Max Gust Speed 26 mph    
Visibility 10 miles    
Events Rain    
T = Trace of Precipitation, MM = Missing Value Source: NWS Daily Summary

Daily Weather History Graph

Daily Weather History Graph

Search for Another Location

Airport:

Trip Planner

Search our weather history database for the weather conditions in past years. The results will help you decide how hot, cold, wet, or windy it might be!

Date:

Astronomy

Mar. 02, 2013 Rise Set
Actual Time 6:45 AM EST 6:27 PM EST
Civil Twilight 6:22 AM EST 6:50 PM EST
Nautical Twilight 5:56 AM EST 7:16 PM EST
Astronomical Twilight 5:29 AM EST 7:43 PM EST
Moon 11:25 PM EST (3/2) 9:49 AM EST (3/2)
Length of Visible Light 12h 27m
Length of Day
11h 41m
Waning Gibbous, 74% of the Moon is Illuminated
Mar 2
Waning Gibbous
Mar 4
Last Quarter
Mar 11
New
Mar 19
First Quarter
Mar 27
Full

Hourly Weather History & Observations

Time (EST) Temp. Dew Point Humidity Pressure Visibility Wind Dir Wind Speed Gust Speed Precip Events Conditions
12:53 AM 62.1 °F 52.0 °F 70% 29.99 in 10.0 mi North 9.2 mph - 0.01 in   Overcast
1:53 AM 62.1 °F 51.1 °F 67% 29.98 in 10.0 mi NNE 11.5 mph 16.1 mph N/A   Overcast
2:53 AM 62.1 °F 51.1 °F 67% 29.98 in 10.0 mi North 8.1 mph 17.3 mph N/A   Overcast
3:53 AM 62.1 °F 51.1 °F 67% 29.97 in 10.0 mi North 11.5 mph 21.9 mph N/A   Overcast
4:29 AM 60.8 °F 51.8 °F 72% 29.98 in 10.0 mi North 12.7 mph 23.0 mph N/A   Overcast
4:53 AM 61.0 °F 48.9 °F 64% 29.99 in 10.0 mi North 11.5 mph 23.0 mph N/A   Overcast
5:11 AM 60.8 °F 48.2 °F 63% 29.99 in 10.0 mi North 12.7 mph 23.0 mph N/A   Overcast
6:53 AM 60.1 °F 48.0 °F 64% 30.00 in 10.0 mi North 11.5 mph 23.0 mph N/A   Overcast
7:53 AM 60.1 °F 46.9 °F 62% 30.02 in 10.0 mi North 11.5 mph 21.9 mph N/A   Overcast
8:53 AM 59.0 °F 45.0 °F 60% 30.04 in 10.0 mi NNE 13.8 mph 20.7 mph N/A   Mostly Cloudy
9:53 AM 60.1 °F 44.1 °F 55% 30.05 in 10.0 mi NNE 11.5 mph - N/A   Scattered Clouds
10:53 AM 61.0 °F 45.0 °F 56% 30.05 in 10.0 mi NNE 9.2 mph - N/A   Mostly Cloudy
11:53 AM 61.0 °F 46.0 °F 58% 30.04 in 10.0 mi North 6.9 mph - N/A   Overcast
12:53 PM 61.0 °F 46.9 °F 60% 30.03 in 10.0 mi North 5.8 mph - N/A   Overcast
1:53 PM 64.0 °F 48.9 °F 58% 30.01 in 10.0 mi Variable 4.6 mph - N/A   Overcast
2:53 PM 66.9 °F 48.0 °F 51% 29.99 in 10.0 mi NW 12.7 mph 18.4 mph N/A   Mostly Cloudy
3:53 PM 66.9 °F 48.0 °F 51% 29.98 in 10.0 mi NNW 11.5 mph 20.7 mph N/A   Partly Cloudy
4:53 PM 62.1 °F 48.9 °F 62% 30.00 in 10.0 mi NNW 12.7 mph 24.2 mph 0.00 in Rain Light Rain
5:53 PM 62.1 °F 46.0 °F 56% 30.01 in 10.0 mi NNW 10.4 mph 20.7 mph 0.00 in   Scattered Clouds
6:53 PM 62.1 °F 44.1 °F 52% 30.03 in 10.0 mi NNW 10.4 mph 26.5 mph N/A   Scattered Clouds
8:53 PM 62.1 °F 43.0 °F 50% 30.06 in 10.0 mi NW 8.1 mph 16.1 mph N/A   Mostly Cloudy
9:53 PM 61.0 °F 44.1 °F 54% 30.06 in 10.0 mi Variable 4.6 mph - N/A   Partly Cloudy
10:53 PM 60.1 °F 44.1 °F 55% 30.04 in 10.0 mi NNE 5.8 mph - N/A   Scattered Clouds
11:53 PM 57.9 °F 44.1 °F 60% 30.04 in 10.0 mi Calm Calm - N/A   Scattered Clouds